sat.trackr.live / text

‹ back to catalog

STARLINK-35045

NORAD 65439 · 2025-194F

PAYLOAD ACTIVE UNKNOWN

§ Identity

Operator
Country
US
Launch date
2025-09-03
Launch site
AFWTR
Launch vehicle
Mass (kg)
RCS (m²)

Purposes: comms

External: N2YO · Heavens-Above · Gunter

§ Orbital elements

Epoch: 2026-09-20T20:10:29.299296Z

Period
93.91 min
Inclination
97.2851°
Eccentricity
0.0001488
Mean motion
15.33436837 rev/d
Perigee alt
464.5 km
Apogee alt
466.6 km
Semi-major
6,843.7 km
B*
3.9781e-4
RAAN
113.5336°
Arg perigee
116.7897°
Mean anomaly
243.3498°
Rev number
5,912

§ Raw data

STARLINK-350451 65439U 25194F   26263.84061689  .00012786  00000+0  39781-3 0  99932 65439  97.2851 113.5336 0001488 116.7897 243.3498 15.33436837 59126

JSON: /api/v1/satellites/65439 · /tle

For live sub-satellite position, see the globe view (requires WebGL).

§ Visibility from observer

Set your observer location to see the next 7 days of passes ≥ 10°. The values pass through the URL so the page stays shareable.

No JS? Fill the form by hand. The geolocation button needs JavaScript.